When you browse on this site, cookies collect data to enhance your experience and personalize the content and advertising you see.
Visit our Privacy Policy to learn more. By continuing to use the site, you agree to this use of cookies and data.
  • In Latvia
  • List of Countries
  • For 7 days
  • Water Temperature
  • Satellite Maps
  • Weather Map
  • Weather Widgets
  • user-avatar
    Login

    Hourly Weather Maczugi

    Today, 27 May, Monday

    Time Temperature Precipitation Wind Pressure Humidity
    00:00 +15°C° 0 mm 2 mps 743 mmHg 91%
    01:00 +15°C° 0 mm 2 mps 743 mmHg 91%
    02:00 +14°C° 0 mm 2 mps 743 mmHg 92%
    03:00 +14°C° 0 mm 2 mps 742 mmHg 92%
    04:00 +14°C° 0 mm 2 mps 742 mmHg 92%
    05:00 +14°C° 0 mm 2 mps 742 mmHg 92%
    06:00 +16°C° 0 mm 2 mps 742 mmHg 89%
    07:00 +17°C° 0 mm 3 mps 742 mmHg 85%
    08:00 +19°C° 0 mm 3 mps 742 mmHg 82%
    09:00 +21°C° 0 mm 3 mps 742 mmHg 76%
    10:00 +22°C° 0 mm 4 mps 742 mmHg 70%
    11:00 +25°C° 0 mm 4 mps 742 mmHg 64%
    12:00 +25°C° 0.1 mm 4 mps 742 mmHg 62%
    13:00 +26°C° 0.1 mm 4 mps 742 mmHg 59%
    14:00 +26°C° 0.1 mm 4 mps 742 mmHg 57%
    15:00 +26°C° 0 mm 4 mps 741 mmHg 61%
    16:00 +25°C° 0 mm 4 mps 741 mmHg 64%
    17:00 +23°C° 0 mm 4 mps 741 mmHg 68%
    18:00 +22°C° 0 mm 3 mps 740 mmHg 72%
    19:00 +21°C° 0 mm 2 mps 740 mmHg 76%
    20:00 +20°C° 0 mm 2 mps 740 mmHg 80%
    21:00 +19°C° 0 mm 2 mps 740 mmHg 80%
    22:00 +19°C° 0 mm 2 mps 740 mmHg 80%
    23:00 +19°C° 0 mm 2 mps 739 mmHg 81%

    Tomorrow, 28 May, Tuesday

    Time Temperature Precipitation Wind Pressure Humidity
    00:00 +18°C° 0.3 mm 3 mps 739 mmHg 83%
    01:00 +18°C° 0.3 mm 3 mps 739 mmHg 86%
    02:00 +18°C° 0.3 mm 3 mps 739 mmHg 88%
    03:00 +17°C° 1 mm 3 mps 738 mmHg 90%
    04:00 +17°C° 1 mm 3 mps 738 mmHg 93%
    05:00 +17°C° 1 mm 2 mps 738 mmHg 95%
    06:00 +18°C° 0 mm 3 mps 738 mmHg 92%
    07:00 +19°C° 0 mm 3 mps 738 mmHg 89%
    08:00 +20°C° 0 mm 4 mps 738 mmHg 86%
    09:00 +21°C° 0 mm 4 mps 738 mmHg 80%
    10:00 +23°C° 0 mm 4 mps 738 mmHg 74%
    11:00 +25°C° 0 mm 4 mps 738 mmHg 68%
    12:00 +25°C° 1 mm 4 mps 737 mmHg 69%
    13:00 +25°C° 1 mm 3 mps 737 mmHg 70%
    14:00 +24°C° 1 mm 3 mps 737 mmHg 71%
    15:00 +24°C° 0.5 mm 3 mps 736 mmHg 75%
    16:00 +22°C° 0.5 mm 3 mps 736 mmHg 79%
    17:00 +22°C° 0.5 mm 3 mps 736 mmHg 83%
    18:00 +21°C° 0.5 mm 3 mps 736 mmHg 84%
    19:00 +20°C° 0.5 mm 3 mps 736 mmHg 86%
    20:00 +20°C° 0.5 mm 2 mps 735 mmHg 87%
    21:00 +19°C° 0 mm 3 mps 735 mmHg 88%
    22:00 +18°C° 0 mm 3 mps 736 mmHg 89%
    23:00 +17°C° 0 mm 4 mps 736 mmHg 90%

    Day after tomorrow, 29 May, Wednesday

    Time Temperature Precipitation Wind Pressure Humidity
    00:00 +17°C° 0 mm 3 mps 736 mmHg 90%
    01:00 +16°C° 0 mm 3 mps 736 mmHg 91%
    02:00 +16°C° 0 mm 3 mps 736 mmHg 92%
    03:00 +14°C° 0 mm 3 mps 737 mmHg 93%
    04:00 +14°C° 0 mm 3 mps 737 mmHg 94%
    05:00 +13°C° 0 mm 3 mps 737 mmHg 95%
    06:00 +14°C° 0 mm 3 mps 738 mmHg 93%
    07:00 +16°C° 0 mm 3 mps 739 mmHg 92%
    08:00 +17°C° 0 mm 4 mps 739 mmHg 90%
    09:00 +17°C° 0 mm 4 mps 740 mmHg 88%
    10:00 +17°C° 0 mm 4 mps 740 mmHg 87%
    11:00 +17°C° 0 mm 4 mps 741 mmHg 85%
    12:00 +18°C° 0 mm 4 mps 741 mmHg 84%
    13:00 +18°C° 0 mm 4 mps 742 mmHg 82%
    14:00 +18°C° 0 mm 4 mps 742 mmHg 81%
    15:00 +18°C° 0 mm 4 mps 743 mmHg 81%
    16:00 +17°C° 0 mm 4 mps 743 mmHg 80%
    17:00 +17°C° 0 mm 4 mps 743 mmHg 80%
    18:00 +15°C° 0 mm 4 mps 743 mmHg 82%
    19:00 +14°C° 0 mm 3 mps 743 mmHg 85%
    20:00 +14°C° 0 mm 3 mps 744 mmHg 87%
    21:00 +13°C° 0 mm 3 mps 744 mmHg 87%
    22:00 +14°C° 0 mm 2 mps 744 mmHg 87%
    23:00 +14°C° 0 mm 2 mps 745 mmHg 87%

    30 May, Thursday

    Time Temperature Precipitation Wind Pressure Humidity
    00:00 +13°C° 0 mm 2 mps 745 mmHg 89%
    01:00 +13°C° 0 mm 2 mps 745 mmHg 91%
    02:00 +12°C° 0 mm 2 mps 745 mmHg 93%
    03:00 +12°C° 0 mm 2 mps 745 mmHg 93%
    04:00 +12°C° 0 mm 2 mps 745 mmHg 93%
    05:00 +12°C° 0 mm 2 mps 745 mmHg 92%
    06:00 +13°C° 0 mm 2 mps 745 mmHg 89%
    07:00 +14°C° 0 mm 2 mps 746 mmHg 85%
    08:00 +15°C° 0 mm 2 mps 746 mmHg 81%
    09:00 +16°C° 0 mm 2 mps 746 mmHg 80%
    10:00 +17°C° 0 mm 2 mps 746 mmHg 78%
    11:00 +17°C° 0 mm 2 mps 746 mmHg 76%
    12:00 +17°C° 0 mm 2 mps 746 mmHg 76%
    13:00 +18°C° 0 mm 2 mps 746 mmHg 76%
    14:00 +19°C° 0 mm 1 mps 746 mmHg 76%
    15:00 +18°C° 0 mm 2 mps 746 mmHg 77%
    16:00 +18°C° 0 mm 2 mps 746 mmHg 77%
    17:00 +18°C° 0 mm 2 mps 746 mmHg 78%
    18:00 +18°C° 0 mm 2 mps 746 mmHg 81%
    19:00 +17°C° 0 mm 2 mps 746 mmHg 83%
    20:00 +18°C° 0 mm 1 mps 746 mmHg 86%
    21:00 +16°C° 0 mm 1 mps 746 mmHg 88%
    22:00 +15°C° 0 mm 1 mps 746 mmHg 90%
    23:00 +14°C° 0 mm 1 mps 746 mmHg 91%

    31 May, Friday

    Time Temperature Precipitation Wind Pressure Humidity
    00:00 +14°C° 0 mm 1 mps 746 mmHg 92%
    01:00 +14°C° 0 mm 1 mps 746 mmHg 92%
    02:00 +13°C° 0 mm 1 mps 746 mmHg 92%
    03:00 +14°C° 0 mm 2 mps 746 mmHg 90%
    04:00 +14°C° 0 mm 2 mps 746 mmHg 88%
    05:00 +14°C° 0 mm 2 mps 745 mmHg 87%
    06:00 +15°C° 0 mm 2 mps 745 mmHg 86%
    07:00 +16°C° 0 mm 2 mps 745 mmHg 85%
    08:00 +16°C° 0 mm 2 mps 745 mmHg 84%
    09:00 +17°C° 0 mm 2 mps 745 mmHg 82%
    10:00 +18°C° 0 mm 2 mps 745 mmHg 81%
    11:00 +18°C° 0 mm 2 mps 744 mmHg 79%
    12:00 +19°C° 0.1 mm 2 mps 744 mmHg 78%
    13:00 +19°C° 0.1 mm 2 mps 744 mmHg 77%
    14:00 +20°C° 0.1 mm 2 mps 744 mmHg 76%
    15:00 +20°C° 0.1 mm 2 mps 744 mmHg 79%
    16:00 +19°C° 0.1 mm 2 mps 743 mmHg 81%
    17:00 +19°C° 0.1 mm 2 mps 743 mmHg 84%
    18:00 +19°C° 0 mm 2 mps 743 mmHg 85%
    19:00 +18°C° 0 mm 2 mps 743 mmHg 87%
    20:00 +18°C° 0 mm 2 mps 743 mmHg 88%
    21:00 +17°C° 0 mm 2 mps 743 mmHg 90%
    22:00 +16°C° 0 mm 2 mps 743 mmHg 93%
    23:00 +15°C° 0 mm 2 mps 743 mmHg 95%

    1 June, Saturday

    Time Temperature Precipitation Wind Pressure Humidity
    00:00 +14°C° 0.1 mm 3 mps 743 mmHg 95%
    01:00 +14°C° 0.1 mm 3 mps 742 mmHg 94%
    02:00 +14°C° 0.1 mm 3 mps 742 mmHg 94%
    03:00 +14°C° 0.3 mm 3 mps 742 mmHg 94%
    04:00 +14°C° 0.3 mm 4 mps 742 mmHg 94%
    05:00 +15°C° 0.3 mm 4 mps 742 mmHg 93%
    06:00 +15°C° 2.8 mm 5 mps 742 mmHg 94%
    07:00 +15°C° 2.8 mm 5 mps 743 mmHg 94%
    08:00 +15°C° 2.8 mm 5 mps 743 mmHg 95%
    09:00 +14°C° 6.3 mm 6 mps 743 mmHg 95%
    10:00 +14°C° 6.3 mm 6 mps 743 mmHg 95%
    11:00 +14°C° 6.3 mm 6 mps 744 mmHg 95%
    12:00 +14°C° 2.4 mm 6 mps 744 mmHg 95%
    13:00 +14°C° 2.4 mm 6 mps 744 mmHg 95%
    14:00 +14°C° 2.4 mm 5 mps 744 mmHg 95%
    15:00 +14°C° 1 mm 6 mps 744 mmHg 95%
    16:00 +14°C° 1 mm 6 mps 745 mmHg 94%
    17:00 +14°C° 1 mm 7 mps 745 mmHg 94%
    18:00 +14°C° 0.9 mm 7 mps 745 mmHg 94%
    19:00 +14°C° 0.9 mm 6 mps 745 mmHg 94%
    20:00 +14°C° 0.9 mm 6 mps 745 mmHg 95%
    21:00 +14°C° 1.3 mm 6 mps 745 mmHg 95%
    22:00 +14°C° 1.3 mm 6 mps 745 mmHg 95%
    23:00 +14°C° 1.3 mm 6 mps 745 mmHg 95%
    Show more